Regional Weather Roundup
Issued by NWS Charleston, SC

Current Version | Previous Version | Graphics & Text | Print | Product List | Glossary On
Versions: 1 2 3 4 5 6 7 8 9 10 11 12 13 14 15 16 17 18 19 20 21 22 23 24 25 26 27 28 29 30 31 32 33 34 35 36 37 38 39 40 41 42 43 44 45 46 47 48 49 50
000
ASUS42 KCHS 231825
RWRCHS

REGIONAL WEATHER ROUNDUP
NATIONAL WEATHER SERVICE CHARLESTON SC
200 PM EDT WED JUL 23 2014

NOTE: "FAIR" INDICATES FEW OR NO CLOUDS BELOW 12,000 FEET WITH NO
SIGNIFICANT WEATHER AND/OR OBSTRUCTIONS TO VISIBILITY.

NOT ALL STATIONS ARE QUALITY CONTROLLED BY THE NATIONAL
WEATHER SERVICE. USE DATA WITH CAUTION...ESPECIALLY
DEWPOINT OBSERVATIONS.

SCZ027-030-031-034>040-042>050-231900-
...SOUTH CAROLINA...

CITY           SKY/WX    TMP DP  RH WIND       PRES   REMARKS
N CHARLESTON   PTSUNNY   93  72  50 VRB3      30.04F HX 101
6HR MIN TEMP:  80; 6HR MAX TEMP:  93;

WATERFRONT PRK NOT AVBL
FORT JOHNSON   NOT AVBL
MOUNT PLEASANT FAIR      88  75  66 S9        30.04F HX  97
JOHNS ISLAND   CLEAR     88  66  48 S10       30.05F HX  90
PINOPOLIS        N/A     90  75  62 N2        29.98F HX 100
MONCKS CORNER    N/A     90  77  66 CALM      30.04F HAZE    HX 102
SUMMERVILLE    FAIR      90  73  58 CALM      30.05F HX  98
BEAUFORT MCAS  PTSUNNY   91  71  51 NW6       30.05F HX  97
6HR MIN TEMP:  80; 6HR MAX TEMP:  92;

BEAUFORT ARPT  CLOUDY    88  75  66 S3        30.05F HX  97
HILTON HEAD IS MOSUNNY   88  77  70 SE6       30.07F HX 100
GEORGETOWN     NOT AVBL
WALTERBORO     MOCLDY    86  72  62 CALM      30.06S HX  92
ORANGEBURG     MOSUNNY   89  70  53 VRB5      30.05F HX  94
6HR MIN TEMP:  74; 6HR MAX TEMP:  90;

BARNWELL       MOCLDY    90  70  51 SW3       30.05F HX  95
AIKEN          MOCLDY    88  73  62 CALM      30.08F HX  96
MANNING        FAIR      90  73  58 MISG      30.03F HX  98
KINGSTREE      NOT AVBL
COLUMBIA       MOSUNNY   90  70  51 VRB6      30.03F HX  95
6HR MIN TEMP:  75; 6HR MAX TEMP:  91;

SUMTER         PTSUNNY   87  74  64 VRB5      30.03F HX  96
6HR MIN TEMP:  75; 6HR MAX TEMP:  88;

FLORENCE       MOSUNNY   91  72  53 NW9       30.03F HX  98
6HR MIN TEMP:  75; 6HR MAX TEMP:  91;

MYRTLE BEACH   NOT AVBL
N MYRTLE BEACH LGT RAIN  85  75  72 S12       30.04F HX  93
6HR MIN TEMP:  77; 6HR MAX TEMP:  88; 6HR PCP: TRACE;


$$

GAZ063-065-086>088-099>101-113>116-118-119-134-136>141-150-231900-
...GEORGIA...

CITY           SKY/WX    TMP DP  RH WIND       PRES   REMARKS
SAVANNAH ARPT  PTSUNNY   92  71  50 CALM      30.05F HX  98
6HR MIN TEMP:  78; 6HR MAX TEMP:  93;

HUNTER AAF     MOSUNNY   90  72  55 S3        30.04F HX  96
6HR MIN TEMP:  79; 6HR MAX TEMP:  91;

FORT STEWART   CLOUDY    89  72  57 CALM      30.05S HX  95
6HR MIN TEMP:  76; 6HR MAX TEMP:  90;

STATESBORO     NOT AVBL
SYLVANIA       PTCLDY    90  76  62 SW5       30.06F HX 101
CLAXTON        FAIR      90  75  62 CALM      30.05F HX 100
THOMSON        MOSUNNY   88  77  70 W3        30.09F HX 100
AUGUSTA-BUSH   PTSUNNY   88  72  58 SE5       30.04F HX  94
6HR MIN TEMP:  75; 6HR MAX TEMP:  89; 6HR PCP: TRACE;

AUGUSTA-DANIEL LGT RAIN  87  71  58 SW5       30.06F HX  93
SWAINSBORO     MOCLDY    91  77  62 S6        30.06F HX 105
VIDALIA          N/A     90  72  55 W3        30.06F HX  96
ALMA           MOSUNNY   91  70  49 NW6       30.06F HX  96
6HR MIN TEMP:  74; 6HR MAX TEMP:  93;

WAYCROSS       MOSUNNY   94  73  49 NW3       30.05F HX 103
JESUP          NOT AVBL
BRUNSWICK      MOSUNNY   91  70  49 CALM      30.06S HX  97
SAINT SIMONS   SUNNY     88  75  65 SE10      30.06S HX  97
6HR MIN TEMP:  79; 6HR MAX TEMP:  88;


$$

SCZ027-028-034-036>038-045-046-048>050-GAZ119-141-231900-
...LAKE AND SUPPLEMENTAL COASTAL OBSERVATIONS...

STATION/POSITION TIME  TEMP    WIND        PRES    WAVE   SWELL
                       AIR SEA DIR/SP/G            HT/PER HT/PER/DIR
                 (UTC) (F)     (DEG/KT/KT) (MB)    (FT/S) (FT/S/D)
UPR LAKE MARION  NOT AVBL
WINYAH BAY       1700   85     110/  6     1018.0S
LAKE MURRAY      1700   83     200/  7/  8 1017.3F
ACE BASIN NERRS  1700   88        CALM     1018.0S
FORT PULASKI     1800   85     140/  6/  9 1018.2F
SAPELO ISLAND    1700   90     100/  5     1019.0S

$$

ANZ835-935-AMZ111-154-330-350-352-354-374-450-454-472-231900-
...C-MAN AND BUOY OBSERVATIONS...

STATION/POSITION TIME  TEMP    WIND        PRES    WAVE   SWELL
                       AIR SEA DIR/SP/G            HT/PER HT/PER/DIR
                 (UTC) (F)     (DEG/KT/KT) (MB)    (FT/S) (FT/S/D)
FOLLY BEACH CMAN 1800   83     160/ 10/ 11 1018.1F
BUOY 41004       1800   80 84  160/  4/  4 1017.9F   3/ 7   3/ 7
BUOY 41008       1800   83 88  120/  2/  4 1018.4F   2/ 7   2/120/ 7
5E ST. MARYS GA  1800      87                N/A     2/ 7
FRYING PAN BUOY  NOT AVBL
BUOY 41025       1800          VRB 10/ 12  1017.0F   3/ 7   2/160/ 7
CAPE LOOKOUT NC  1800   80     180/ 11/ 13 1016.6F
BUOY 41002       1726   83 82  230/ 17/ 21 1020.3F   4/ 5   2/120/10
BUOY 41010       1800   80 83  250/ 12/ 17 1020.1R   4/ 5   2/120/ 6
BUOY 41012       NOT AVBL
ST AUGUSTINE FL  1800   82     110/  8/  9 1019.1F
CAPERS NEARSHORE 1700   85     170/  6/  8   N/A
FRIPP NEARSHORE  NOT AVBL


$$



USA.gov is the U.S. government's official web portal to all federal, state and local government web resources and services.